STARLINK-36964, 68184

Orbit data source: Space-Track

STARLINK-36964, 68184 is a payload satellite owned by SpaceX/Seattle (US) in LEO that was launched on Sat, 14 Mar 2026 UTC via an FALCON 9 launch vehicle from the Air Force Eastern Test Range (AFETR). Payload-class satellites include a variety of spacecraft equipped with specific instruments for various scientific and technological missions. These include communications satellites like Starlink; space stations such as the ISS; scientific satellites like the Hubble; Earth observation satellites from companies like Planet Labs, Umbra, and HawkEye 360; GPS; miniature CubeSats for education and research; and military/defense satellites.

Loading next visibility...
Identifier
68184, 2026-050T
Orbit
LEO
Country
Flag of USUS
Related business
Manufacturer
SpaceX/Seattle
Mission
Operational spacecraft
Bus & Motor
STARLINK V2MO, Unknown motor
Mass
575 kg wet, ~530 kg dry
Launch date (UTC)
2026-03-14 (3 months ago)
Launch vehicle
FALCON 9
Launch site
Air Force Eastern Test Range (AFETR)
Object type
Payload
Rocket body
Debris
Shape & HBR
Unknown shape, 17.7 m
Radar Cross Section
Large (>1 m²)

Expand to show TLE details & history
Last TLE update: 13 hours ago

TLE from 13 hours ago
0 STARLINK-36964
1 68184U 26050T   26171.31247323  .00021825  00000-0  65486-3 0  9992
2 68184  53.1583 148.7684 0001067  70.4000 289.7117 15.34415829 16416
Epoch: 2026-06-20T07:29Z
TLE epoch observation values (Epoch: 2026-06-20T07:29:57.687Z)
Latitude
-0.00006°
Longitude
127.74909°
Altitude
463.311 km
Speed
7.636 km/s
True Right ascension
09h 55m 04s
True Declination
0° 00' 00"
Sunlit
Object was in daylight at epoch
Visualization orbit readout
Latitude
Unknown
Longitude
Unknown
Altitude
Unknown
Speed
Unknown
Apparent Right ascension
Unknown
Apparent Declination
Unknown
Sunlit
N/A
Visualization observer readout
Local Sidereal Time
07:24:00
Azimuth
Unknown
Elevation
Unknown
Doppler factor
Unknown
Orbital elements
Apogee altitude
463.643 km
Perigee altitude
462.183 km
Semi-major axis
6,841.05 km
Eccentricity
0.00011
Inclination
53.1583°
RAAN
148.7684°
Arg. of periapsis
70.4°
True anomaly
289.70019°
Mean anomaly
289.7117°
Eccentric anomaly
289.70594°
Mean motion
3.83583 °/min
Orbital period
93.85 mins
BSTAR
0.00065486
Loading maneuver chart data...
Computing Atmospheric mass density...
Loading historical data...
Loading historical data...
Loading historical data...
Loading historical data...
Loading historical data...
Loading historical data...
Loading historical data...

Documentation

Showing up to 5 results
|